Home > Weather > Warsaw > Past weeks

Flag for Poland Past Weather in Warsaw, Poland — Yesterday and Last 2 Weeks

Now
77 °F

Scattered clouds.


Feels Like: 79 °F
Forecast: 60 / 78 °F
Wind: 7 mph from Southwest

Location: Warsaw Okecie Airport

Current Time: Jul 29, 2016 at 4:05:23 PM

Latest Report: Jul 29, 2016 at 3:30 PM


Visibility: N/A

Pressure: 29.89 "Hg

Humidity: 54%

Dew Point: 59 °F

Location of WarsawLocation

Past Weather in Warsaw — Graph

°F

Warsaw Temperature Yesterday

Maximum temperature yesterday: 82 °F (at 4:00 PM)
Minimum temperature yesterday: 64 °F (at 2:00 AM)
Average temperature yesterday: 72 °F

High & Low Weather Summary for the Past Weeks

 TemperatureHumidityPressure
High88 °F (Jul 26, 2:00 PM)100% (Jul 15, 4:30 AM)30.18 "Hg (Jul 15, 4:30 AM)
Low50 °F (Jul 20, 4:00 AM)30% (Jul 21, 4:00 PM)29.56 "Hg (Jul 14, 3:30 PM)
Average68 °F72%30.01 "Hg
* Reported Jul 14 2:00 PM — Jul 29 2:30 PM, Warsaw, Weather by CustomWeather, © 2016

Note: Actual official high and low records may vary slightly from our data, if they occured in-between our weather recording intervals... More about our weather records

Advertising

Warsaw Weather History for the Previous 24 Hours

Scroll right to see more
 ConditionsComfort  
Time TempWeatherWind HumidityBarometerVisibility
2:30 PM
Fri, Jul 29
81 °FScattered clouds.5 mph45%29.86 "HgN/A
2:00 PM81 °FPassing clouds.5 mph48%29.86 "HgN/A
1:30 PM81 °FPassing clouds.5 mph51%29.89 "HgN/A
1:00 PM79 °FScattered clouds.2 mph54%29.89 "HgN/A
12:30 PM77 °FScattered clouds.3 mph54%29.89 "HgN/A
12:00 PM75 °FPartly sunny.5 mph69%29.89 "HgN/A
11:30 AM75 °FPartly sunny.6 mph65%29.92 "HgN/A
11:00 AM75 °FPartly sunny.5 mph65%29.92 "HgN/A
10:30 AM73 °FScattered clouds.2 mph69%29.92 "HgN/A
10:00 AM75 °FScattered clouds.3 mph65%29.92 "HgN/A
9:30 AM73 °FPassing clouds.2 mph74%29.92 "HgN/A
9:00 AM73 °FPassing clouds.2 mph74%29.92 "HgN/A
8:30 AM70 °FPassing clouds.1 mph88%29.92 "HgN/A
8:00 AM70 °FPassing clouds.No wind88%29.92 "HgN/A
7:30 AM70 °FSunny.2 mph88%29.92 "Hg10 mi
7:00 AM68 °FSunny.2 mph94%29.92 "Hg10 mi
6:30 AM66 °FPassing clouds.2 mph100%29.92 "HgN/A
6:00 AM64 °FPassing clouds.5 mph100%29.92 "HgN/A
5:30 AM64 °FClear.3 mph100%29.92 "Hg10 mi
5:00 AM66 °FClear.2 mph94%29.92 "Hg10 mi
4:30 AM64 °FClear.5 mph100%29.92 "Hg10 mi
4:00 AM64 °FLight rain. Clear.5 mph100%29.92 "HgN/A
3:30 AM64 °FLight rain. Clear.5 mph100%29.92 "HgN/A
3:00 AM68 °FLight rain. Clear.5 mph83%29.92 "HgN/A
2:30 AM68 °FLight rain. Clear.6 mph83%29.92 "HgN/A
2:00 AM68 °FClear.5 mph78%29.92 "Hg10 mi
1:30 AM68 °FClear.5 mph78%29.92 "Hg10 mi
1:00 AM68 °FClear.5 mph78%29.92 "Hg10 mi
12:30 AM70 °FClear.3 mph73%29.95 "Hg10 mi
12:00 AM70 °FClear.5 mph73%29.95 "Hg10 mi
11:30 PM
Thu, Jul 28
72 °FPassing clouds.5 mph69%29.95 "HgN/A
11:00 PM72 °FClear.6 mph69%29.95 "Hg10 mi
10:30 PM73 °FClear.7 mph65%29.95 "Hg10 mi
10:00 PM73 °FClear.8 mph69%29.92 "Hg10 mi
9:30 PM75 °FPassing clouds.5 mph65%29.95 "HgN/A
9:00 PM75 °FPartly sunny.3 mph65%29.95 "HgN/A
8:30 PM75 °FPassing clouds.2 mph65%29.92 "HgN/A
8:00 PM75 °FSunny.5 mph65%29.92 "Hg10 mi
7:30 PM77 °FSunny.7 mph57%29.92 "Hg10 mi
7:00 PM77 °FSunny.9 mph57%29.92 "Hg10 mi
6:30 PM77 °FPassing clouds.9 mph57%29.92 "HgN/A
6:00 PM79 °FScattered clouds.9 mph58%29.92 "HgN/A
5:30 PM79 °FScattered clouds.9 mph58%29.92 "HgN/A
5:00 PM79 °FScattered clouds.8 mph61%29.92 "HgN/A
4:30 PM79 °FScattered clouds.6 mph61%29.92 "HgN/A
4:00 PM82 °FScattered clouds.8 mph55%29.92 "HgN/A
Weather by CustomWeather, © 2016

See weather overviewHow to use our weather pages